Regional Weather Roundup
Issued by NWS

Home | Current Version | Previous Version | Text Only | Print | Product List | Glossary On
Versions: 1 2 3 4 5 6 7 8 9 10 11 12 13 14 15 16 17 18 19 20 21 22 23 24 25 26 27 28 29 30 31 32 33 34 35 36 37 38 39 40 41 42 43 44 45 46 47 48 49 50
000
ASUS45 KABQ 030910
RWRNM
WEATHER ROUNDUP FOR NEW MEXICO
NATIONAL WEATHER SERVICE ALBUQUERQUE NM
300 AM MDT SUN MAY 03 2015

NOTE: "FAIR" MEANS FEW OR NO CLOUDS BELOW 12,000 FEET AGL WITH NO
       SIGNIFICANT WEATHER OR OBSTRUCTIONS TO VISION.

      THIS PRODUCT IS RELEASED AS TWO VERSIONS.  ONE VERSION NEAR
      THE TOP OF THE HOUR CONTAINING PRELIMINARY DATA FROM ALBUQUERQUE
      AND OTHER STATIONS.  A FINAL VERSION WITH ADDITIONAL DATA IS
      ISSUED ABOUT 10 MINUTES AFTER THE HOUR.

NMZ501-503-504-510>518-031000-
NORTHWEST PLATEAU/NORTHCENTRAL MOUNTAINS

CITY           SKY/WX    TMP DP  RH WIND       PRES   REMARKS
FARMINGTON     MOCLDY    53  35  50 E5        30.02S
LOS ALAMOS     PTCLDY    53  32  44 NW5       30.13S
SANTA FE       PTCLDY    50  35  56 NE8       30.08S
TAOS           MOCLDY    43  28  56 CALM      30.12F
ANGEL FIRE     FAIR      36  33  90 SW5       30.18F WCI  32

$$
NMZ402-403-502-505>509-031000-
WESTCENTRAL MOUNTAINS/SOUTHWEST MOUNTAINS

CITY           SKY/WX    TMP DP  RH WIND       PRES   REMARKS
GALLUP         MOCLDY    44  39  82 E3        30.10F
GRANTS         MOCLDY    39  36  87 CALM      30.12S
SILVER CITY      N/A     54  37  54 NE6       30.07F

$$
NMZ407-409-411-412-031000-
SOUTHERN DESERTS

CITY           SKY/WX    TMP DP  RH WIND       PRES   REMARKS
LORDSBURG      FAIR      61  37  41 SW3       30.00S
DEMING         PTCLDY    59  40  49 NW5       30.00F
LAS CRUCES     CLOUDY    70  35  27 NE7       30.00F
HOLLOMAN AFB   MOCLDY    70  36  29 W8        29.98S
ALAMOGORDO     MOCLDY    70  32  24 N3        30.00S
T OR C         CLOUDY    67  36  31 W6        30.01F

$$
NMZ519>523-031000-
CENTRAL VALLEYS/CENTRAL HIGHLANDS

CITY           SKY/WX    TMP DP  RH WIND       PRES   REMARKS
ALBUQUERQUE    MOCLDY    55  35  47 E8        30.05S
DOUBLE EAGLE   PTCLDY    51  37  59 CALM      30.07F
MORIARTY ARPT  FAIR      43  33  67 CALM      30.09F
CLINES CORNERS PTCLDY    54  30  40 CALM      30.10F
BELEN          PTSUNNY   56  38  51 CALM      30.04F
SOCORRO        MOCLDY    61  36  39 CALM      30.03S

$$
NMZ524>526-539-540-031000-
SOUTHCENTRAL MOUNTAINS

CITY           SKY/WX    TMP DP  RH WIND       PRES   REMARKS
RUIDOSO        MOCLDY    54  28  37 W5        30.12S

$$
NMZ527>531-031000-
NORTHEAST HIGHLANDS/NORTHEAST PLAINS

CITY           SKY/WX    TMP DP  RH WIND       PRES   REMARKS
LAS VEGAS      PTCLDY    49  33  54 W5        30.09F
RATON          MOCLDY    49  34  56 CALM      30.05F
CLAYTON        MOCLDY    59  39  47 W14       29.96S

$$
NMZ532>537-031000-
EASTCENTRAL PLAINS

CITY           SKY/WX    TMP DP  RH WIND       PRES   REMARKS
TUCUMCARI      CLOUDY    63  41  44 W9        29.93S
CANNON AFB     PTCLDY    55  40  57 SE2       29.98F
CLOVIS AIRPORT PTCLDY    55  41  58 S6        29.99S

$$
NMZ028-029-538-031000-
SOUTHEAST PLAINS

CITY           SKY/WX    TMP DP  RH WIND       PRES   REMARKS
ROSWELL        PTCLDY    56  42  59 S6        29.93S
ARTESIA        PTCLDY    63  48  59 SE10      29.93F
CARLSBAD       PTCLDY    63  47  55 SE12      29.89F
HOBBS          PTCLDY    59  45  58 S10       29.96R


$$



USA.gov is the U.S. government's official web portal to all federal, state and local government web resources and services.